KG6SIB Weather Reports


time (UTC)temp
F
wind
direction
speed
knots
gust
knots
rain 1hr
in
rain 24hr
in
rain mn
in
humidity
%
barometer
mb
20260903093741 46 61 3.5 7.8 0.00 0.00 0.00 24 1016.7
20260903093242 46 48 4.3 7.0 0.00 0.00 0.00 24 1016.8
20260903092741 46 38 3.5 7.8 0.00 0.00 0.00 25 1016.8
20260903092241 46 32 5.2 7.8 0.00 0.00 0.00 25 1016.9
20260903091241 46 59 4.3 7.0 0.00 0.00 0.00 25 1017.0
20260903090741 46 30 5.2 6.1 0.00 0.00 0.00 25 1017.1
20260903085741 47 63 4.3 7.0 0.00 0.00 0.00 26 1017.3
20260903085241 47 51 5.2 7.0 0.00 0.00 0.00 26 1017.3
20260903084741 47 80 2.6 7.0 0.00 0.00 0.00 26 1017.3
20260903084240 48 67 4.3 7.8 0.00 0.00 0.00 27 1017.3
20260903083741 48 76 4.3 7.8 0.00 0.00 0.00 27 1017.4
20260903083241 48 75 4.3 7.0 0.00 0.00 0.00 28 1017.5
20260903081740 47 76 4.3 7.8 0.00 0.00 0.00 30 1017.7
20260903080240 48 49 3.5 7.8 0.00 0.00 0.00 32 1017.7
20260903075240 48 92 3.5 8.7 0.00 0.00 0.00 31 1017.8
20260903074740 48 53 4.3 8.7 0.00 0.00 0.00 30 1017.6
20260903074240 48 45 5.2 7.8 0.00 0.00 0.00 31 1017.8
20260903073740 48 53 6.1 7.8 0.00 0.00 0.00 32 1017.8
20260903073240 48 65 5.2 7.8 0.00 0.00 0.00 31 1017.8
20260903072739 48 65 5.2 7.8 0.00 0.00 0.00 32 1017.8
20260903071739 48 71 7.0 7.0 0.00 0.00 0.00 32 1017.8
20260903071239 48 53 4.3 7.0 0.00 0.00 0.00 33 1017.8
20260903070739 48 80 4.3 7.0 0.00 0.00 0.00 33 1017.7
20260903070239 48 69 1.7 7.0 0.00 0.00 0.00 33 1017.7
20260903065740 48 62 2.6 7.0 0.00 0.00 0.00 33 1017.5
20260903065239 48 90 6.1 7.0 0.00 0.00 0.00 34 1017.4
20260903064739 48 57 3.5 7.0 0.00 0.00 0.00 35 1017.4
20260903063239 49 54 3.5 6.1 0.00 0.00 0.00 35 1017.5
20260903062739 49 46 4.3 6.1 0.00 0.00 0.00 34 1017.4
20260903062239 49 77 6.1 7.0 0.00 0.00 0.00 34 1017.4
20260903060240 49 57 2.6 7.0 0.00 0.00 0.00 32 1017.3
20260903055739 50 48 2.6 6.1 0.00 0.00 0.00 33 1017.5
20260903055239 50 42 3.5 5.2 0.00 0.00 0.00 33 1017.6
20260903054739 50 59 3.5 7.0 0.00 0.00 0.00 33 1017.7
20260903054238 50 65 3.5 7.0 0.00 0.00 0.00 34 1017.8
20260903053738 50 51 3.5 6.1 0.00 0.00 0.00 34 1017.8
20260903053238 50 74 2.6 6.1 0.00 0.00 0.00 35 1017.9
20260903052238 51 78 3.5 7.0 0.00 0.00 0.00 35 1017.8
20260903051727 51 58 1.7 7.8 0.00 0.00 0.00 35 1017.9
20260903051238 51 69 3.5 7.8 0.00 0.00 0.00 36 1017.8
20260903050238 52 57 3.5 7.0 0.00 0.00 0.00 38 1018.0
20260903045738 52 76 6.1 7.0 0.00 0.00 0.00 39 1017.5
20260903045238 52 69 2.6 7.0 0.00 0.00 0.00 40 1017.7
20260903044737 53 63 3.5 7.0 0.00 0.00 0.00 41 1017.9
20260903044238 53 59 3.5 6.1 0.00 0.00 0.00 43 1017.8
20260903043737 53 65 4.3 6.1 0.00 0.00 0.00 45 1017.8
20260903043237 53 65 3.5 6.1 0.00 0.00 0.00 45 1017.8
20260903042737 53 36 3.5 6.1 0.00 0.00 0.00 48 1017.8
20260903042237 53 75 3.5 5.2 0.00 0.00 0.00 47 1017.7
20260903041738 53 53 3.5 5.2 0.00 0.00 0.00 49 1017.6
20260903040737 54 53 1.7 6.1 0.00 0.00 0.00 48 1017.6
20260903040237 54 71 3.5 6.1 0.00 0.00 0.00 50 1017.5
20260903035737 54 83 2.6 6.1 0.00 0.00 0.00 51 1017.2
20260903035237 55 77 4.3 7.0 0.00 0.00 0.00 53 1017.4
20260903034237 55 65 3.5 6.1 0.00 0.00 0.00 57 1017.4
20260903033737 56 44 3.5 5.2 0.00 0.00 0.00 55 1017.4
20260903033237 56 40 3.5 5.2 0.00 0.00 0.00 59 1017.4
20260903032237 57 60 5.2 5.2 0.00 0.00 0.00 59 1017.6
20260903031737 58 61 2.6 4.3 0.00 0.00 0.00 58 1017.6
20260903031237 58 38 2.6 4.3 0.00 0.00 0.00 58 1017.6
20260903030737 59 59 2.6 4.3 0.00 0.00 0.00 58 1017.6
20260903030236 59 53 2.6 4.3 0.00 0.00 0.00 59 1017.5
20260903025737 60 47 3.5 3.5 0.00 0.00 0.00 59 1016.3
20260903025236 61 51 0.9 4.3 0.00 0.00 0.00 60 1016.4
20260903024737 61 74 3.5 4.3 0.00 0.00 0.00 60 1016.4
20260903024236 62 54 0.9 3.5 0.00 0.00 0.00 60 1016.6
20260903023737 63 317 1.7 2.6 0.00 0.00 0.00 59 1016.6
20260903023236 63 249 0.9 1.7 0.00 0.00 0.00 57 1016.6
20260903022736 64 249 0.0 0.9 0.00 0.00 0.00 56 1016.7
20260903022236 65 249 0.0 0.0 0.00 0.00 0.00 55 1016.7
20260903021736 66 249 0.0 0.0 0.00 0.00 0.00 55 1017.0
20260903020736 67 249 0.0 2.6 0.00 0.00 0.00 54 1017.0
20260903020236 68 249 0.0 4.3 0.00 0.00 0.00 54 1017.2
20260903015236 69 248 1.7 6.1 0.00 0.00 0.00 54 1015.6
20260903014736 69 246 2.6 6.1 0.00 0.00 0.00 53 1015.6
20260903014235 70 234 4.3 6.1 0.00 0.00 0.00 52 1015.8
20260903013736 70 240 0.9 4.3 0.00 0.00 0.00 51 1015.7
20260903012735 71 234 0.0 7.0 0.00 0.00 0.00 48 1015.9
20260903012235 72 239 5.2 7.0 0.00 0.00 0.00 48 1016.1
20260903011236 73 226 0.9 7.0 0.00 0.00 0.00 46 1016.2
20260903010735 73 245 6.1 8.7 0.00 0.00 0.00 45 1016.1
20260903005235 74 223 0.9 7.8 0.00 0.00 0.00 44 1016.3
20260903004235 75 236 1.7 6.1 0.00 0.00 0.00 42 1016.2
20260903003235 76 180 3.5 7.0 0.00 0.00 0.00 41 1016.5
20260903002735 76 249 0.9 8.7 0.00 0.00 0.00 41 1016.5
20260903001735 77 232 4.3 9.6 0.00 0.00 0.00 39 1016.4
20260903001235 77 219 7.8 9.6 0.00 0.00 0.00 38 1016.4
20260903000234 78 250 7.0 7.0 0.00 0.00 0.00 37 1016.6
20260902235735 79 248 4.3 8.7 0.00 0.00 0.00 37 1016.6
20260902235235 79 224 1.7 10.4 0.00 0.00 0.00 36 1016.7
20260902234725 80 218 4.3 10.4 0.00 0.00 0.00 35 1016.9
20260902234235 81 229 4.3 9.6 0.00 0.00 0.00 34 1016.8
20260902233734 81 257 1.7 10.4 0.00 0.00 0.00 33 1016.9
20260902233235 81 234 7.8 10.4 0.00 0.00 0.00 32 1016.8
20260902232234 82 215 7.8 11.3 0.00 0.00 0.00 31 1017.0
20260902231734 82 201 9.6 11.3 0.00 0.00 0.00 32 1017.1
20260902231234 82 221 6.1 9.6 0.00 0.00 0.00 30 1017.2
20260902230734 82 221 6.1 11.3 0.00 0.00 0.00 30 1017.3
20260902225734 82 246 3.5 12.2 0.00 0.00 0.00 33 1017.5
20260902225233 82 230 3.5 10.4 0.00 0.00 0.00 32 1017.4
20260902224735 82 240 8.7 12.2 0.00 0.00 0.00 32 1017.4
20260902224234 82 189 1.7 12.2 0.00 0.00 0.00 32 1017.5
20260902223233 83 248 7.0 11.3 0.00 0.00 0.00 31 1017.7
20260902222733 84 242 7.0 13.0 0.00 0.00 0.00 29 1017.8
20260902222234 84 240 5.2 13.0 0.00 0.00 0.00 28 1017.7
20260902221733 84 228 4.3 12.2 0.00 0.00 0.00 27 1017.5
20260902215722 85 314 0.9 12.2 0.00 0.00 0.00 27 1018.0
20260902215234 84 240 1.7 12.2 0.00 0.00 0.00 26 1017.7
20260902213733 84 219 6.1 11.3 0.00 0.00 0.00 24 1017.9
20260902213233 85 253 8.7 10.4 0.00 0.00 0.00 22 1018.1
20260902212733 86 240 8.7 12.2 0.00 0.00 0.00 22 1018.2
20260902212233 86 238 3.5 12.2 0.00 0.00 0.00 21 1018.1
20260902211733 86 232 7.0 12.2 0.00 0.00 0.00 20 1018.0
20260902210733 85 252 10.4 13.9 0.00 0.00 0.00 19 1018.1
20260902210232 85 190 1.7 13.9 0.00 0.00 0.00 18 1018.2
20260902205732 85 202 3.5 13.9 0.00 0.00 0.00 17 1018.2
20260902205232 85 227 7.8 13.9 0.00 0.00 0.00 18 1018.2
20260902204733 84 247 7.8 16.5 0.00 0.00 0.00 21 1018.3
20260902204233 84 213 2.6 16.5 0.00 0.00 0.00 20 1018.5
20260902203732 85 273 16.5 16.5 0.00 0.00 0.00 22 1018.5
20260902203232 85 239 7.8 11.3 0.00 0.00 0.00 21 1018.5
20260902202232 84 225 7.0 14.8 0.00 0.00 0.00 21 1018.6
20260902201732 84 205 4.3 13.9 0.00 0.00 0.00 20 1018.6
20260902201227 84 240 7.8 13.9 0.00 0.00 0.00 20 1018.7
20260902200732 84 235 5.2 10.4 0.00 0.00 0.00 21 1018.7
20260902200232 84 250 3.5 11.3 0.00 0.00 0.00 21 1018.7
20260902195732 84 225 6.1 11.3 0.00 0.00 0.00 22 1018.6
20260902195232 84 277 0.9 11.3 0.00 0.00 0.00 22 1018.8
20260902194731 85 240 2.6 11.3 0.00 0.00 0.00 22 1019.1
20260902193231 85 229 2.6 11.3 0.00 0.00 0.00 18 1019.0
20260902192731 85 254 6.1 10.4 0.00 0.00 0.00 18 1019.0
20260902192232 84 198 3.5 9.6 0.00 0.00 0.00 16 1019.0
20260902191731 83 217 6.1 9.6 0.00 0.00 0.00 16 1018.9
20260902191231 82 224 3.5 9.6 0.00 0.00 0.00 18 1018.9
20260902190731 82 222 3.5 12.2 0.00 0.00 0.00 18 1019.0
20260902190231 82 228 3.5 12.2 0.00 0.00 0.00 18 1019.1
20260902185731 81 244 1.7 12.2 0.00 0.00 0.00 19 1018.9
20260902185232 81 242 4.3 10.4 0.00 0.00 0.00 19 1019.0
20260902184731 81 247 4.3 10.4 0.00 0.00 0.00 16 1019.0
20260902183731 83 234 4.3 12.2 0.00 0.00 0.00 16 1019.3
20260902183231 83 207 6.1 12.2 0.00 0.00 0.00 16 1019.4
20260902182719 83 212 4.3 13.9 0.00 0.00 0.00 15 1019.3
20260902182231 82 242 5.2 13.9 0.00 0.00 0.00 15 1019.2
20260902181731 82 218 6.1 16.5 0.00 0.00 0.00 15 1019.2
20260902181230 81 189 7.8 16.5 0.00 0.00 0.00 15 1019.1
20260902180231 82 242 4.3 10.4 0.00 0.00 0.00 14 1019.1
20260902175731 81 241 5.2 12.2 0.00 0.00 0.00 14 1019.1
20260902175231 81 232 8.7 12.2 0.00 0.00 0.00 15 1019.1
20260902172730 80 238 5.2 9.6 0.00 0.00 0.00 15 1019.0
20260902172230 80 217 1.7 7.8 0.00 0.00 0.00 15 1019.0
20260902171730 80 230 3.5 9.6 0.00 0.00 0.00 15 1018.9
20260902171230 80 239 7.0 9.6 0.00 0.00 0.00 14 1018.9
20260902170729 80 234 0.9 9.6 0.00 0.00 0.00 15 1018.8
20260902170230 79 259 1.7 10.4 0.00 0.00 0.00 15 1018.8
20260902165730 78 233 2.6 10.4 0.00 0.00 0.00 16 1018.7
20260902164730 78 247 3.5 7.8 0.00 0.00 0.00 16 1018.7
20260902164230 78 238 1.7 8.7 0.00 0.00 0.00 16 1018.6
20260902162729 78 234 0.9 8.7 0.00 0.00 0.00 16 1018.5
20260902161729 78 231 2.6 8.7 0.00 0.00 0.00 16 1018.5
20260902161229 78 269 0.9 7.0 0.00 0.00 0.00 16 1018.5
20260902160729 78 222 0.0 4.3 0.00 0.00 0.00 16 1018.5
20260902160229 77 246 0.0 6.1 0.00 0.00 0.00 17 1018.5
20260902155729 77 246 1.7 6.1 0.00 0.00 0.00 17 1018.7
20260902155229 77 234 0.9 5.2 0.00 0.00 0.00 17 1018.6
20260902154229 75 89 0.0 0.0 0.00 0.00 0.00 19 1018.3
20260902153729 74 89 0.0 0.0 0.00 0.00 0.00 20 1018.2
20260902153229 74 89 0.0 0.0 0.00 0.00 0.00 19 1018.2
20260902152729 73 88 0.0 0.0 0.00 0.00 0.00 20 1018.0
20260902152229 72 88 0.0 1.7 0.00 0.00 0.00 24 1018.1
20260902151228 68 88 0.9 3.5 0.00 0.00 0.00 25 1017.6
20260902150728 66 88 1.7 4.3 0.00 0.00 0.00 28 1017.4
20260902150258 64 88 0.9 4.3 0.00 0.00 0.00 28 1017.1
20260902145728 62 76 4.3 6.1 0.00 0.00 0.00 29 1017.6
20260902145228 61 79 2.6 6.1 0.00 0.00 0.00 30 1017.7
20260902144728 60 71 2.6 7.0 0.00 0.00 0.00 31 1017.4
20260902143728 57 50 3.5 7.0 0.00 0.00 0.00 33 1017.3
20260902143228 56 71 4.3 7.0 0.00 0.00 0.00 35 1017.0
20260902142728 54 62 3.5 7.0 0.00 0.00 0.00 35 1016.8
20260902142228 53 48 3.5 7.0 0.00 0.00 0.00 36 1016.7
20260902141727 52 67 3.5 7.0 0.00 0.00 0.00 37 1016.5
20260902141228 51 43 3.5 7.0 0.00 0.00 0.00 38 1016.5
20260902140727 50 70 5.2 7.0 0.00 0.00 0.00 38 1016.3
20260902140258 50 46 4.3 7.0 0.00 0.00 0.00 38 1016.2
20260902135728 50 86 4.3 8.7 0.00 0.00 0.00 38 1016.8
20260902135228 50 66 3.5 8.7 0.00 0.00 0.00 38 1016.7
20260902134727 50 39 3.5 7.8 0.00 0.00 0.00 38 1016.7
20260902134227 50 67 7.0 7.0 0.00 0.00 0.00 38 1016.6
20260902133258 50 65 3.5 7.0 0.00 0.00 0.00 38 1016.4
20260902132727 50 70 4.3 7.8 0.00 0.00 0.00 39 1016.4
20260902132257 50 57 4.3 7.8 0.00 0.00 0.00 39 1016.3
20260902131757 50 61 2.6 7.0 0.00 0.00 0.00 39 1016.3
20260902131257 49 60 2.6 7.0 0.00 0.00 0.00 39 1015.9
20260902130757 50 92 2.6 7.0 0.00 0.00 0.00 39 1016.2
20260902130256 50 59 4.3 7.8 0.00 0.00 0.00 40 1016.2
20260902125757 50 51 4.3 7.8 0.00 0.00 0.00 40 1017.0
20260902125256 50 59 5.2 7.0 0.00 0.00 0.00 40 1017.0
20260902124757 50 49 4.3 7.8 0.00 0.00 0.00 41 1017.0
20260902124256 49 41 4.3 7.8 0.00 0.00 0.00 41 1016.7
20260902123756 49 59 5.2 7.0 0.00 0.00 0.00 41 1016.6
20260902123257 49 53 4.3 7.8 0.00 0.00 0.00 42 1016.6
20260902122756 50 29 4.3 7.8 0.00 0.00 0.00 41 1016.8
20260902122256 50 46 3.5 7.8 0.00 0.00 0.00 41 1016.9
20260902121757 50 50 4.3 7.8 0.00 0.00 0.00 41 1016.9
20260902121256 50 71 7.0 7.8 0.00 0.00 0.00 40 1016.8
20260902120244 51 36 5.2 7.0 0.00 0.00 0.00 39 1016.8
20260902115256 51 94 1.7 7.8 0.00 0.00 0.00 38 1017.2
20260902114726 50 66 5.2 7.8 0.00 0.00 0.00 38 1017.1
20260902113757 50 49 4.3 7.8 0.00 0.00 0.00 38 1017.2
20260902113255 50 63 4.3 7.8 0.00 0.00 0.00 37 1017.2
20260902112255 50 74 4.3 7.0 0.00 0.00 0.00 37 1017.2
20260902111255 50 59 4.3 7.0 0.00 0.00 0.00 37 1017.3
20260902110755 50 51 5.2 7.0 0.00 0.00 0.00 37 1017.3
20260902110255 51 51 4.3 7.0 0.00 0.00 0.00 37 1017.4
20260902105755 51 46 3.5 7.0 0.00 0.00 0.00 37 1018.0
20260902105255 51 55 4.3 7.0 0.00 0.00 0.00 36 1018.0
20260902104755 51 55 2.6 7.0 0.00 0.00 0.00 36 1018.0
20260902104225 51 40 4.3 7.0 0.00 0.00 0.00 36 1018.1
20260902103755 52 54 4.3 7.0 0.00 0.00 0.00 37 1018.2
20260902102755 52 74 2.6 7.0 0.00 0.00 0.00 37 1018.2
20260902101754 52 49 4.3 6.1 0.00 0.00 0.00 37 1018.2
20260902101244 52 53 3.5 7.0 0.00 0.00 0.00 37 1018.2
20260902100724 52 76 3.5 7.8 0.00 0.00 0.00 37 1018.2
20260902100244 51 51 4.3 7.8 0.00 0.00 0.00 37 1018.3
20260902095754 51 59 7.8 7.8 0.00 0.00 0.00 37 1018.3
20260902095254 51 61 5.2 6.1 0.00 0.00 0.00 37 1018.3